Weather History for KBAF - January, 2014

Change the Weather History Date:

Wednesday, January 1, 2014

  Actual Average Record
Temperature  
Mean Temperature 21 °F -  
Max Temperature 28 °F 34 °F 51 °F (2012)
Min Temperature 14 °F 19 °F -4 °F (1997)
Degree Days  
Heating Degree Days 44    
Moisture  
Dew Point 7 °F    
Average Humidity 55    
Maximum Humidity 80    
Minimum Humidity 33    
Precipitation  
Precipitation 0.00 in - - ()
Sea Level Pressure  
Sea Level Pressure 30.34 in    
Wind  
Wind Speed 6 mph (West)    
Max Wind Speed 12 mph    
Max Gust Speed 25 mph    
Visibility 9 miles    
Events Snow    
Averages and records for this station are not official NWS values.
T = Trace of Precipitation, MM = Missing Value Source: NWS Daily Summary

Daily Weather History Graph

Daily Weather History Graph

Search for Another Location

Airport or City:

Trip Planner

Search our weather history database for the weather conditions in past years. The results will help you decide how hot, cold, wet, or windy it might be!

Date:

Astronomy

Jan. 01, 2014 Rise Set
Actual Time 7:19 AM EST 4:29 PM EST
Civil Twilight 6:47 AM EST 5:01 PM EST
Nautical Twilight 6:12 AM EST 5:36 PM EST
Astronomical Twilight 5:38 AM EST 6:10 PM EST
Moon 7:06 AM EST (1/1) 5:12 PM EST (1/1)
Length of Visible Light 10h 13m
Length of Day
9h 10m
New Moon, 0% of the Moon is Illuminated
Jan 1
New Moon
Jan 7
First Quarter
Jan 15
Full
Jan 24
Last Quarter
Jan 30
New

Hourly Weather History & Observations

Time (EST) Temp. Windchill Dew Point Humidity Pressure Visibility Wind Dir Wind Speed Gust Speed Precip Events Conditions
12:53 AM 21.0 °F 14.6 °F 3.0 °F 46% 30.24 in 10.0 mi Variable 4.6 mph 19.6 mph N/A   Clear
1:53 AM 21.0 °F 9.9 °F 3.0 °F 46% 30.27 in 10.0 mi SW 10.4 mph 25.3 mph N/A   Mostly Cloudy
2:53 AM 19.0 °F 10.0 °F 5.0 °F 54% 30.29 in 10.0 mi SW 6.9 mph - N/A   Clear
3:53 AM 14.0 °F 3.9 °F 3.9 °F 64% 30.29 in 10.0 mi South 6.9 mph - N/A   Clear
4:53 AM 16.0 °F 7.4 °F 3.9 °F 59% 30.30 in 10.0 mi South 5.8 mph - N/A   Clear
5:53 AM 15.1 °F 3.3 °F 6.1 °F 68% 30.32 in 10.0 mi South 9.2 mph - N/A   Clear
6:53 AM 14.0 °F 5.1 °F 5.0 °F 67% 30.34 in 10.0 mi SSE 5.8 mph - N/A   Clear
7:53 AM 14.0 °F - 7.0 °F 74% 30.37 in 10.0 mi Calm Calm - N/A   Mostly Cloudy
8:53 AM 19.0 °F 9.0 °F 9.0 °F 65% 30.39 in 10.0 mi SSW 8.1 mph - N/A   Overcast
9:53 AM 23.0 °F 17.0 °F 9.0 °F 55% 30.39 in 10.0 mi South 4.6 mph - N/A   Mostly Cloudy
10:53 AM 25.0 °F 17.1 °F 8.1 °F 49% 30.38 in 10.0 mi WNW 6.9 mph - N/A   Overcast
11:53 AM 28.0 °F 18.1 °F 6.1 °F 39% 30.35 in 10.0 mi West 11.5 mph 20.7 mph N/A   Scattered Clouds
12:53 PM 28.9 °F 19.8 °F 5.0 °F 36% 30.34 in 10.0 mi WNW 10.4 mph - N/A   Partly Cloudy
1:53 PM 28.0 °F 18.1 °F 3.9 °F 36% 30.34 in 10.0 mi WNW 11.5 mph - N/A   Mostly Cloudy
2:53 PM 28.9 °F 21.1 °F 3.9 °F 35% 30.34 in 10.0 mi West 8.1 mph - N/A   Overcast
3:53 PM 28.0 °F 20.8 °F 1.9 °F 33% 30.36 in 10.0 mi WSW 6.9 mph - N/A   Overcast
4:53 PM 27.0 °F 21.6 °F 3.0 °F 36% 30.35 in 10.0 mi West 4.6 mph - N/A   Overcast
5:53 PM 26.1 °F 19.4 °F 5.0 °F 41% 30.36 in 10.0 mi NW 5.8 mph - N/A   Overcast
6:53 PM 25.0 °F - 5.0 °F 43% 30.37 in 10.0 mi Calm Calm - N/A   Overcast
7:53 PM 24.1 °F 19.7 °F 7.0 °F 48% 30.38 in 10.0 mi North 3.5 mph - N/A   Overcast
8:53 PM 24.1 °F 16.0 °F 10.9 °F 57% 30.38 in 10.0 mi NW 6.9 mph - N/A   Overcast
9:30 PM 23.0 °F 18.4 °F 14.0 °F 68% 30.35 in 3.0 mi WNW 3.5 mph - 0.00 in Snow Light Snow
9:53 PM 23.0 °F - 15.1 °F 72% 30.38 in 3.0 mi Calm Calm - 0.00 in   Haze
10:53 PM 23.0 °F 18.4 °F 16.0 °F 74% 30.37 in 8.0 mi NNE 3.5 mph - 0.00 in   Overcast
11:47 PM 21.2 °F 14.9 °F 15.8 °F 80% 30.33 in 2.5 mi NNE 4.6 mph - 0.00 in Snow Light Snow
11:53 PM 21.9 °F 14.5 °F 16.0 °F 78% 30.35 in 2.5 mi NNE 5.8 mph - 0.00 in Snow Light Snow